Regional Weather Roundup
Issued by NWS

Home | Current Version | Previous Version | Text Only | Print | Product List | Glossary On
Versions: 1 2 3 4 5 6 7 8 9 10 11 12 13 14 15 16 17 18 19 20 21 22 23 24 25 26 27 28 29 30 31 32 33 34 35 36 37 38 39 40 41 42 43 44 45 46 47 48 49 50
000
ASUS44 KLUB 290610
RWRTX
WEST TEXAS WEATHER ROUNDUP
NATIONAL WEATHER SERVICE LUBBOCK TX
100 AM CDT MON MAY 29 2017

NOTE: "FAIR" INDICATES FEW OR NO CLOUDS BELOW 12,000 FEET WITH NO
SIGNIFICANT WEATHER AND/OR OBSTRUCTIONS TO VISIBILITY.

TXZ004-006>008-010-012-014-016-OKZ002-290700-
TEXAS PANHANDLE/OKLAHOMA PANHANDLE

CITY           SKY/WX    TMP DP  RH WIND       PRES   REMARKS
AMARILLO       CLEAR     58  37  45 SE3       30.17S
BORGER         CLEAR     61  40  45 CALM      30.15R
CANADIAN       CLEAR     53  48  82 CALM      30.11R
DALHART        CLEAR     59  38  45 CALM      30.19F
DUMAS          CLEAR     56  39  53 SW3       30.17S
GUYMON         CLEAR     53  44  71 W7        30.12F
HEREFORD       CLEAR     53  42  68 CALM      30.19S
PAMPA          CLEAR     62  39  43 W6        30.16R
PERRYTON       CLEAR     60  45  56 W8        30.11R
$$

TXZ026-029-035-045-048-290700-
SOUTHERN PANHANDLE/SOUTH PLAINS/ROLLING PLAINS

CITY           SKY/WX    TMP DP  RH WIND       PRES   REMARKS
CHILDRESS      CLEAR     67  38  34 E5        30.10S
SEMINOLE       CLEAR     63  43  49 E6        30.16R
LUBBOCK        CLEAR     62  41  46 E9        30.16R
PLAINVIEW      CLEAR     58  35  41 E7        30.15R
SNYDER         CLOUDY    70  42  36 E9        30.13R
$$

TXZ052-054-060>062-072-078-127-140-154-169-290700-
PERMIAN BASIN/CONCHO VALLEY/BIG COUNTRY/EDWARDS PLATEAU

CITY           SKY/WX    TMP DP  RH WIND       PRES   REMARKS
ABILENE        CLOUDY    64  63  96 E5        30.10R
BIG SPRING     CLOUDY    65  54  67 E7        30.15R
BROWNWOOD      CLOUDY    68  64  88 N5        30.05S
JUNCTION       CLOUDY    70  65  84 CALM      30.05F
MIDLAND        CLEAR     70  52  52 E10       30.13R
ODESSA         CLEAR     70  52  52 E8        30.14R
SAN ANGELO     CLOUDY    69  58  67 NE6       30.08R
SONORA         CLOUDY    70  61  73 CALM      30.13R
SWEETWATER     CLOUDY    66  56  70 E5        30.15R
WINK           CLEAR     67  48  50 E7        30.10R
$$

TXZ055-058-074-075-080-082-290700-
FAR WEST/SOUTHWEST MOUNTAINS/TRANS PECOS

CITY           SKY/WX    TMP DP  RH WIND       PRES   REMARKS
ALPINE         PTCLDY    66  47  49 NE8       30.23R
DRYDEN           N/A     75  64  68 E7        30.06R
EL PASO        CLEAR     75  37  25 E14       30.07R
FORT STOCKTON  CLEAR     70  54  56 E15       30.12R
GUADALUPE PASS CLEAR     62  44  51 NE20      30.21S
MARFA          CLEAR     64  46  52 NE12      30.20R
PECOS          CLEAR     67  46  45 E8        30.10R
PRESIDIO       FAIR      79  49  35 N16G23    30.04R
$$

TXZ014-016-019-021>030-083-290700
TEXAS TECH WEST TEXAS MESONET/TEXAS PANHANDLE/NORTHERN SOUTH PLAINS

CITY           SKY/WX    TMP DP  RH WIND       PRES   REMARKS
ABERNATHY 5ENE   N/A     56  41  56 E7        30.17R
AMARILLO 9NNE    N/A     49  38  67 S6        30.16S
AMARILLO 7SSE    N/A     52  38  58 CALM      30.18S
AMHERST 1NE      N/A     56  35  44 NE7       30.17S
BOOTLEG 11WNW    N/A     56  35  45 E6        30.23R
CANADIAN 6E      N/A     56  46  69 W6        30.09R
CAPROCK CYN SP   N/A     55  39  55 W3        30.15R
CHILDRESS 2NNE   N/A     67  38  34 E6        30.10S
CLARENDON 2WSW   N/A     52  40  63 CALM      30.14S
CLAUDE 12SW      N/A     58  37  44 NE7       30.17R
DIMMITT 2NE      N/A     55  37  50 NE6       30.18S
FLOYDADA 2NNE    N/A     54  39  56 NE6       30.16R
FRIONA 2NE       N/A     52  36  53 E3        30.20S
GOODLETT 3W      N/A     66  39  37 E3        30.09R
HART 3N          N/A     55  36  47 NE3       30.17S
HEREFORD 2NW     N/A     52  36  55 N2        30.19R
MCLEAN 1E        N/A     65  38  37 SW5       30.12S
MEMPHIS 1NE      N/A     57  43  59 NW2       30.12R
MULESHOE 2SSW    N/A     51  38  60 NE1       30.18S
OLTON 6S         N/A     57  36  45 NE7       30.17R
PALO DURO SP     N/A     61  36  39 CALM      30.18S
PAMPA 2E         N/A     57  41  55 SW3       30.14S
PLAINVIEW 1S     N/A     61  36  39 E5        30.16R
SILVERTON 7ESE   N/A     55  35  45 E7        30.16R
TULIA 2ENE       N/A     52  35  52 N2        30.16S
TURKEY 2WSW      N/A     66  38  35 NE2       30.13R
UMBARGER 3NNE    N/A     52  35  51 CALM      30.19S
$$

TXZ033>036-039>041-045>048-290700
TEXAS TECH WEST TEXAS MESONET/SOUTH PLAINS

CITY           SKY/WX    TMP DP  RH WIND       PRES   REMARKS
AIKEN 3WSW       N/A     55  40  57 E7        30.18R
ANDREWS 2NE      N/A     64  46  52 E7        30.15R
ANTON 6SSW       N/A     58  38  46 E6        30.17R
BROWNFIELD 2S    N/A     65  40  39 NE9       30.15R
DENVR CTY 7WNW   N/A     58  37  45 E3        30.16R
GAIL 2ESE        N/A     64  42  44 E5        30.13R
LAMESA 2SE       N/A     66  39  36 NE9       30.15R
LEVELLAND 4S     N/A     57  34  41 NE3       30.17R
LUBBOCK 3WNW     N/A     62  38  40 NE5       30.16R
MORTON 1ENE      N/A     58  32  37 NE8       30.17S
ODONNELL 1N      N/A     60  36  39 E7        30.15R
PLAINS 3N        N/A     59  37  43 NE9       30.16R
RALLS 1SE        N/A     58  36  45 E7        30.17R
REESE CENTER     N/A     58  36  44 E7        30.16R
SEAGRAVES 1SW    N/A     64  39  38 E6        30.15R
SEMINOLE 2NNE    N/A     62  40  44 E6        30.15R
SLATON 2NE       N/A     66  36  33 E9        30.16R
SNYDER 3E        N/A     69  40  34 NE12      30.12R
SUNDOWN 8SW      N/A     57  37  47 NE8       30.16R
TAHOKA 3NNE      N/A     59  36  43 NE8       30.15R
WOLFFORTH 6SSW   N/A     61  36  40 NE8       30.16R
$$

TXZ031-032-036>038-042>044-290700-
TEXAS TECH WEST TEXAS MESONET/ROLLING PLAINS

CITY           SKY/WX    TMP DP  RH WIND       PRES   REMARKS
ASPERMONT 3NE    N/A     64  42  44 NE6       30.10R
FLUVANNA 3WNW    N/A     66  38  35 NE12      30.13S
GRAHAM 5SSW      N/A     67  37  33 NE15      30.14R
GUTHRIE 10WSW    N/A     64  41  43 N3        30.11R
HASKELL 1NW      N/A     67  44  42 NE7       30.09S
JAYTON 1SSE      N/A     67  41  39 NE6       30.11R
KNOX CITY 3NW    N/A     65  42  42 E5        30.10R
LK A HENRY 1NW   N/A     65  39  38 NE6       30.12S
NORTHFIELD 1S    N/A     66  38  36 E6        30.11S
ODELL 4ENE       N/A     63  44  49 E8        30.09R
PADUCAH 10SW     N/A     64  41  42 E2        30.11S
POST 1NE         N/A     63  38  39 N3        30.14R
RRING SPRGS 3N   N/A     65  40  40 E3        30.14S
SEYMOUR 3NW      N/A     63  50  61 NE5       30.08S
SPUR 1W          N/A     62  40  44 NE5       30.12R
WEINERT 2NNE     N/A     64  45  48 E5        30.10R
WHITE RVR 6NE    N/A     66  38  35 NE8       30.14R
$$

TXZ052-054-060>062-072-078-127-140-154-169-290700-
TEXAS TECH WEST TEXAS MESONET/PERMIAN BASIN/
CONCHO VALLEY/BIG COUNTRY/EDWARDS PLATEAU

CITY           SKY/WX    TMP DP  RH WIND       PRES   REMARKS
COYANOSA 2N      N/A     71  48  45 E9        30.11R
JUNCTION 1SSW    N/A     70  65  85 N3        30.06F
MERTZON 3NNE     N/A     66  58  75 N5        30.10F
SAN ANGELO 7NW   N/A     67  55  64 NW1       30.09S
STRLNG CT 4WSW   N/A     58  55  89 CALM      30.12S
ST LAWRNCE 5SW   N/A     66  54  66 E9        30.11S
SWEETWATR 11SW   N/A     62  58  86 E5        30.14R
WALL 1E          N/A     68  62  79 E1        30.09S
$$

TXZ055-058-074-075-080-082-290700-
TEXAS TECH WEST TEXAS MESONET/FAR WEST/SOUTHWEST MOUNTAINS/TRANS PECOS

CITY           SKY/WX    TMP DP  RH WIND       PRES   REMARKS
PRSMN GAP BBNP   N/A     76  62  62 NE16      30.05S
GUADLPE MTN NP   N/A     62  43  48 N10       30.24F
$$



USA.gov is the U.S. government's official web portal to all federal, state and local government web resources and services.